Fremont, MI

10:37 PM EST on November 11, 2019 (GMT -0500)
Fremont

Weather History for KFFX - September, 2019

Change the Weather History Date:

Saturday, September 14, 2019

  Actual Average (WUND) Record (WUND)
Temperature  
Mean Temperature 60 °F -  
Max Temperature 69 °F - - (-1)
Min Temperature 52 °F - - (-1)
Degree Days  
Heating Degree Days 4    
Growing Degree Days 10 (Base 50)    
Moisture  
Dew Point 48 °F    
Average Humidity 62    
Maximum Humidity 91    
Minimum Humidity 37    
Precipitation  
Precipitation 0.00 in - - ()
Sea Level Pressure  
Sea Level Pressure 30.14 in    
Wind  
Wind Speed 6 mph ()    
Max Wind Speed 12 mph    
Max Gust Speed 18 mph    
Visibility 10.0 miles    
Events      
Averages and records for this station are not official NWS values.
T = Trace of Precipitation, MM = Missing Value Source: Averaged Metar Reports

Daily Weather History Graph

Daily Weather History Graph

Search for Another Location

Airport or City:

Astronomy

Sep. 14, 2019 Rise Set
Actual Time 7:22 AM EDT 7:56 PM EDT
Civil Twilight 6:53 AM EDT 8:25 PM EDT
Nautical Twilight 6:19 AM EDT 8:58 PM EDT
Astronomical Twilight 5:44 AM EDT 9:33 PM EDT
Moon 8:37 PM EDT (9/14) 7:33 AM EDT (9/14)
Length of Visible Light 13h 31m
Length of Day
12h 34m
Full, 100% of the Moon is Illuminated
Sep 14
Full
Sep 21
Last Quarter
Sep 28
New
Oct 5
First Quarter
Oct 13
Full

Hourly Weather History & Observations

Time (EDT) Temp. Dew Point Humidity Pressure Visibility Wind Dir Wind Speed Gust Speed Precip Events Conditions
12:35 AM 62.4 °F 47.3 °F 58% 30.07 in 10.0 mi WSW 6.9 mph - N/A   Overcast
12:55 AM 62.4 °F 47.7 °F 58% 30.07 in 10.0 mi West 8.1 mph - N/A   Overcast
12:56 AM 62.2 °F 47.7 °F 59% 30.07 in 10.0 mi West 8.1 mph - N/A   Overcast
1:19 AM 62.6 °F 47.8 °F 58% 30.08 in 10.0 mi WSW 8.1 mph - N/A   Overcast
1:37 AM 63.0 °F 47.8 °F 58% 30.08 in 10.0 mi West 9.2 mph 18.4 mph N/A   Overcast
1:55 AM 63.0 °F 47.1 °F 56% 30.08 in 10.0 mi West 11.5 mph 16.1 mph N/A   Overcast
2:15 AM 62.8 °F 47.1 °F 57% 30.08 in 10.0 mi West 9.2 mph - N/A   Overcast
2:16 AM 62.8 °F 47.1 °F 57% 30.08 in 10.0 mi West 8.1 mph - N/A   Overcast
2:35 AM 62.6 °F 47.7 °F 58% 30.08 in 10.0 mi West 5.8 mph - N/A   Overcast
2:40 AM 62.4 °F 48.0 °F 59% 30.08 in 10.0 mi West 5.8 mph - N/A   Overcast
2:58 AM 62.1 °F 48.4 °F 61% 30.08 in 10.0 mi West 5.8 mph - N/A   Overcast
3:16 AM 61.7 °F 48.6 °F 62% 30.08 in 10.0 mi WNW 8.1 mph - N/A   Overcast
3:35 AM 61.2 °F 48.0 °F 62% 30.08 in 10.0 mi WNW 6.9 mph - N/A   Overcast
3:55 AM 60.8 °F 47.7 °F 62% 30.08 in 10.0 mi West 6.9 mph - N/A   Overcast
3:56 AM 60.6 °F 47.7 °F 62% 30.08 in 10.0 mi West 5.8 mph - N/A   Overcast
4:19 AM 59.9 °F 47.7 °F 64% 30.08 in 10.0 mi West 5.8 mph - N/A   Overcast
4:37 AM 59.9 °F 48.4 °F 66% 30.09 in 10.0 mi WNW 4.6 mph - N/A   Overcast
4:55 AM 59.7 °F 48.6 °F 67% 30.09 in 10.0 mi WNW 4.6 mph - N/A   Overcast
4:56 AM 59.5 °F 48.2 °F 66% 30.09 in 10.0 mi WNW 5.8 mph - N/A   Overcast
5:15 AM 59.0 °F 46.2 °F 63% 30.10 in 10.0 mi WNW 5.8 mph - N/A   Mostly Cloudy
5:16 AM 58.6 °F 46.4 °F 64% 30.10 in 10.0 mi WNW 5.8 mph - N/A   Mostly Cloudy
5:35 AM 57.9 °F 45.7 °F 64% 30.11 in 10.0 mi West 4.6 mph - N/A   Scattered Clouds
5:40 AM 57.6 °F 45.9 °F 65% 30.11 in 10.0 mi West 3.5 mph - N/A   Clear
5:57 AM 56.8 °F 46.4 °F 68% 30.12 in 10.0 mi West 4.6 mph - N/A   Clear
6:16 AM 56.3 °F 46.8 °F 70% 30.12 in 10.0 mi West 4.6 mph - N/A   Clear
6:35 AM 55.4 °F 47.7 °F 75% 30.13 in 10.0 mi WSW 4.6 mph - N/A   Clear
6:36 AM 55.4 °F 47.7 °F 75% 30.14 in 10.0 mi WSW 4.6 mph - N/A   Clear
6:55 AM 54.0 °F 48.4 °F 81% 30.14 in 10.0 mi WSW 5.8 mph - N/A   Clear
6:56 AM 54.0 °F 48.4 °F 81% 30.14 in 10.0 mi WSW 4.6 mph - N/A   Clear
7:19 AM 53.6 °F 48.6 °F 83% 30.15 in 10.0 mi WSW 4.6 mph - N/A   Clear
7:37 AM 52.9 °F 48.9 °F 86% 30.15 in 10.0 mi WSW 4.6 mph - N/A   Clear
7:55 AM 53.1 °F 49.3 °F 87% 30.16 in 10.0 mi WSW 3.5 mph - N/A   Clear
7:56 AM 53.1 °F 49.3 °F 87% 30.16 in 10.0 mi WSW 3.5 mph - N/A   Clear
8:15 AM 55.2 °F 50.0 °F 83% 30.16 in 10.0 mi SW 3.5 mph - N/A   Clear
8:16 AM 55.2 °F 50.2 °F 83% 30.16 in 10.0 mi SW 3.5 mph - N/A   Clear
8:35 AM 57.2 °F 47.7 °F 70% 30.17 in 10.0 mi WSW 3.5 mph - N/A   Clear
8:40 AM 57.6 °F 46.8 °F 67% 30.17 in 10.0 mi WSW 5.8 mph - N/A   Clear
8:58 AM 59.0 °F 46.2 °F 63% 30.18 in 10.0 mi West 5.8 mph - N/A   Clear
9:16 AM 60.6 °F 46.0 °F 59% 30.18 in 10.0 mi West 5.8 mph - N/A   Clear
9:35 AM 62.1 °F 45.9 °F 55% 30.19 in 10.0 mi West 5.8 mph - N/A   Clear
9:55 AM 62.8 °F 44.8 °F 52% 30.19 in 10.0 mi West 9.2 mph - N/A   Clear
10:19 AM 63.7 °F 44.6 °F 50% 30.19 in 10.0 mi WNW 10.4 mph - N/A   Clear
10:37 AM 64.4 °F 44.2 °F 48% 30.19 in 10.0 mi West 6.9 mph - N/A   Scattered Clouds
10:55 AM 64.6 °F 43.5 °F 46% 30.19 in 10.0 mi West 8.1 mph - N/A   Scattered Clouds
11:15 AM 65.8 °F 43.7 °F 45% 30.19 in 10.0 mi WNW 8.1 mph - N/A   Clear
11:35 AM 66.4 °F 44.1 °F 44% 30.19 in 10.0 mi West 5.8 mph - N/A   Scattered Clouds
11:40 AM 66.9 °F 42.6 °F 41% 30.19 in 10.0 mi WSW 8.1 mph - N/A   Scattered Clouds
11:58 AM 66.4 °F 43.3 °F 43% 30.19 in 10.0 mi WSW 5.8 mph - N/A   Clear
12:16 PM 67.1 °F 42.4 °F 41% 30.19 in 10.0 mi WSW 9.2 mph - N/A   Clear
12:35 PM 67.5 °F 41.9 °F 39% 30.19 in 10.0 mi WSW 10.4 mph - N/A   Clear
12:36 PM 67.5 °F 41.5 °F 39% 30.19 in 10.0 mi West 9.2 mph - N/A   Clear
12:55 PM 68.2 °F 41.9 °F 38% 30.19 in 10.0 mi WSW 8.1 mph - N/A   Clear
1:19 PM 68.0 °F 40.6 °F 37% 30.19 in 10.0 mi WSW 10.4 mph - N/A   Clear
1:37 PM 68.7 °F 43.7 °F 40% 30.19 in 10.0 mi West 10.4 mph - N/A   Clear
1:55 PM 68.4 °F 43.3 °F 40% 30.19 in 10.0 mi West 6.9 mph - N/A   Clear
1:56 PM 68.5 °F 43.5 °F 40% 30.19 in 10.0 mi West 6.9 mph - N/A   Clear
2:15 PM 68.5 °F 42.8 °F 39% 30.18 in 10.0 mi WSW 6.9 mph - N/A   Clear
2:16 PM 68.5 °F 43.3 °F 40% 30.18 in 10.0 mi WSW 8.1 mph - N/A   Clear
2:35 PM 69.1 °F 43.2 °F 39% 30.17 in 10.0 mi WSW 9.2 mph - N/A   Clear
2:58 PM 68.9 °F 43.5 °F 40% 30.17 in 10.0 mi SW 10.4 mph - N/A   Clear
3:16 PM 69.1 °F 43.2 °F 39% 30.16 in 10.0 mi WSW 8.1 mph - N/A   Clear
3:35 PM 69.3 °F 44.6 °F 41% 30.17 in 10.0 mi WSW 10.4 mph - N/A   Clear
3:55 PM 69.6 °F 45.0 °F 41% 30.17 in 10.0 mi West 11.5 mph 17.3 mph N/A   Clear
4:19 PM 69.1 °F 46.0 °F 44% 30.17 in 10.0 mi WSW 9.2 mph 18.4 mph N/A   Clear
4:37 PM 67.5 °F 46.2 °F 46% 30.17 in 10.0 mi WSW 11.5 mph 16.1 mph N/A   Scattered Clouds
4:55 PM 68.5 °F 46.4 °F 45% 30.16 in 10.0 mi WSW 9.2 mph - N/A   Scattered Clouds
5:15 PM 68.4 °F 46.4 °F 45% 30.16 in 10.0 mi WSW 10.4 mph - N/A   Clear
5:35 PM 68.4 °F 46.6 °F 46% 30.15 in 10.0 mi West 9.2 mph - N/A   Clear
5:40 PM 68.5 °F 46.9 °F 46% 30.16 in 10.0 mi West 9.2 mph - N/A   Clear
5:58 PM 68.0 °F 47.1 °F 47% 30.15 in 10.0 mi West 8.1 mph - N/A   Clear
6:16 PM 68.0 °F 48.6 °F 50% 30.15 in 10.0 mi SW 8.1 mph - N/A   Clear
6:35 PM 66.9 °F 49.8 °F 54% 30.15 in 10.0 mi SSW 4.6 mph - N/A   Scattered Clouds
6:36 PM 66.9 °F 50.0 °F 54% 30.15 in 10.0 mi SSW 5.8 mph - N/A   Scattered Clouds
6:55 PM 66.2 °F 50.2 °F 56% 30.15 in 10.0 mi SW 3.5 mph - N/A   Overcast
6:56 PM 66.2 °F 50.2 °F 56% 30.15 in 10.0 mi SSW 3.5 mph - N/A   Overcast
7:19 PM 65.3 °F 50.5 °F 59% 30.14 in 10.0 mi SW 3.5 mph - N/A   Mostly Cloudy
7:37 PM 64.9 °F 51.8 °F 62% 30.14 in 10.0 mi Calm Calm - N/A   Clear
7:55 PM 63.9 °F 51.8 °F 65% 30.15 in 10.0 mi Calm Calm - N/A   Clear
7:56 PM 63.9 °F 51.8 °F 65% 30.15 in 10.0 mi Calm Calm - N/A   Clear
8:15 PM 62.6 °F 52.7 °F 70% 30.14 in 10.0 mi Calm Calm - N/A   Clear
8:16 PM 62.6 °F 52.7 °F 70% 30.14 in 10.0 mi Calm Calm - N/A   Clear
8:35 PM 60.8 °F 56.8 °F 87% 30.14 in 10.0 mi Calm Calm - N/A   Clear
8:58 PM 60.1 °F 57.0 °F 90% 30.13 in 10.0 mi SE 3.5 mph - N/A   Clear
9:16 PM 60.6 °F 56.8 °F 87% 30.13 in 10.0 mi ESE 3.5 mph - N/A   Clear
9:35 PM 60.3 °F 57.0 °F 89% 30.14 in 10.0 mi Calm Calm - N/A   Scattered Clouds
9:36 PM 60.4 °F 57.0 °F 88% 30.14 in 10.0 mi Calm Calm - N/A   Scattered Clouds
9:55 PM 59.7 °F 57.2 °F 91% 30.13 in 10.0 mi ESE 3.5 mph - N/A   Scattered Clouds
9:56 PM 59.9 °F 57.2 °F 91% 30.13 in 10.0 mi ESE 3.5 mph - N/A   Scattered Clouds
10:19 PM 60.1 °F 57.0 °F 90% 30.14 in 10.0 mi ESE 3.5 mph - N/A   Scattered Clouds
10:37 PM 59.5 °F 56.5 °F 90% 30.14 in 10.0 mi ESE 3.5 mph - N/A   Clear
10:55 PM 59.4 °F 56.1 °F 89% 30.14 in 10.0 mi Calm Calm - N/A   Scattered Clouds
11:15 PM 60.8 °F 56.7 °F 86% 30.15 in 10.0 mi Calm Calm - N/A   Mostly Cloudy
11:16 PM 60.8 °F 56.7 °F 86% 30.15 in 10.0 mi SE 3.5 mph - N/A   Overcast
11:35 PM 61.2 °F 56.7 °F 85% 30.15 in 10.0 mi Calm Calm - N/A   Mostly Cloudy
11:58 PM 61.0 °F 56.5 °F 85% 30.14 in 10.0 mi Calm Calm - N/A   Overcast